SPACEBEE-26 (46956 NORAD) Tracking and Keplerian Element Data
This shows tracking and keplerian element data for the satellite.
Feedback or suggestion? Click here.
Element | Value |
Catalog | 46956 |
Name | SPACEBEE-26 |
Epoch Orbit | 840 |
Epoch Day | 14.92943068 |
Epoch Year | 2021 |
RAAN | 154.3502 |
Inclination | 97.3721 |
Eccentricity | 0.0016388 |
Argument of Perigee | 114.9296 |
Mean Anonmoly | 245.3645 |
Mean Motion | 15.20910503 |
Decay Rate | 4.234E-05 |
L1 | 1 46956U 20085AD 21014.92943068 .00004234 00000-0 19390-3 0 9992 |
L2 | 2 46956 97.3721 154.3502 0016388 114.9296 245.3645 15.20910503 8406 |
Live tracking and technical data element details for SPACEBEE-26 (NORAD 46956). SPACEBEE-26 can be tracked NOW for your location showing map with azimuth and elevation plus other details from your city location.
Track the satellite on the map from your city or location and see movement details for azimuth, elevation, latitude, longitude, range, height, and movement on the map or in text.
IsCatalogInMostPopularTable: catalog: 46956, numindb: 18
Update: records affected: 1
GetName: 46956 SPACEBEE-26
Hit Count: updated at: Fri, 15 Jan 2021 23:51:28 GMT